Check out our new BloomSky Weather System.

Active alerts

Houston, TX
  Details for Houston, TX Dense Fog Advisory


Thunder radar  blitzortung!


Rain radar more information rain snow radar


Visit our other weather sites:

Template documentation
and downloads

And another site



Weather Underground History page Text

Daily Summary for December 07, 2017 Units:  English    Metric   Both
« Previous Day
Next Day »
Daily Weekly Monthly Yearly Custom
  High: Low: Average:
Temperature: 45.3 °F 32.0 °F 41.7 °F
Dew Point: 43.7 °F 31.1 °F 39.5 °F
Humidity: 97 % 75 % 92 %
Wind Speed: 18.0 mph 0.0 mph 2.2 mph
Wind Gust: 18.0 mph - -
Wind:- - West
Pressure: 30.34 in 30.24 in -
Precipitation: 0.49 in    
Historical Graphs
 
 
Tabular Data for December 07, 2017
Time Temperature Dew Point Pressure Wind Wind Speed Wind Gust Humidity Rainfall Rate (Hourly)
00:03 42.1 °F 40.8 °F 30.32 in NW 1.0 mph 5.0 mph 95 % 0.01 in
00:08 42.1 °F 40.8 °F 30.32 in North 1.0 mph 5.0 mph 95 % 0.01 in
00:13 42.1 °F 40.5 °F 30.32 in NW 1.0 mph 5.0 mph 94 % 0.01 in
00:18 42.1 °F 40.8 °F 30.32 in WNW 2.0 mph 6.0 mph 95 % 0.01 in
00:23 42.1 °F 40.5 °F 30.32 in North 3.0 mph 6.0 mph 94 % 0.01 in
00:28 42.1 °F 40.8 °F 30.32 in NNW 2.0 mph 6.0 mph 95 % 0.01 in
00:33 41.9 °F 40.3 °F 30.32 in NNW 1.0 mph 6.0 mph 94 % 0.01 in
00:38 41.9 °F 40.3 °F 30.31 in West 1.0 mph 6.0 mph 94 % 0.01 in
00:43 41.9 °F 40.3 °F 30.31 in North 2.0 mph 4.0 mph 94 % 0.01 in
00:49 41.9 °F 40.3 °F 30.31 in NNW 1.0 mph 4.0 mph 94 % 0.01 in
00:54 41.7 °F 40.1 °F 30.32 in NW 2.0 mph 5.0 mph 94 % 0.01 in
00:59 41.7 °F 40.1 °F 30.32 in NW 2.0 mph 5.0 mph 94 % 0.01 in
01:04 41.7 °F 40.1 °F 30.32 in NNW 2.0 mph 5.0 mph 94 % 0.00 in
01:09 41.7 °F 40.1 °F 30.32 in NNW 1.0 mph 5.0 mph 94 % 0.00 in
01:14 41.7 °F 40.1 °F 30.32 in Calm   4.0 mph 94 % 0.00 in
01:19 41.7 °F 40.1 °F 30.32 in WNW 1.0 mph 4.0 mph 94 % 0.00 in
01:24 41.7 °F 40.1 °F 30.31 in NNW 1.0 mph 4.0 mph 94 % 0.00 in
01:29 41.7 °F 40.1 °F 30.30 in ENE 2.0 mph 4.0 mph 94 % 0.00 in
01:34 41.5 °F 39.9 °F 30.30 in NNW 1.0 mph 4.0 mph 94 % 0.00 in
01:36 41.5 °F 39.9 °F 30.30 in NNW 4.0 mph 4.0 mph 94 % 0.00 in
01:41 41.5 °F 39.9 °F 30.30 in NNW 1.0 mph 6.0 mph 94 % 0.01 in
01:46 41.5 °F 39.9 °F 30.30 in NNE 3.0 mph 6.0 mph 94 % 0.01 in
01:51 41.5 °F 40.3 °F 30.30 in NNW 3.0 mph 6.0 mph 95 % 0.01 in
01:56 41.5 °F 40.3 °F 30.30 in NNW 2.0 mph 6.0 mph 95 % 0.01 in
02:01 41.5 °F 39.9 °F 30.30 in NW 1.0 mph 6.0 mph 94 % 0.01 in
02:06 41.4 °F 39.7 °F 30.30 in NW 4.0 mph 5.0 mph 94 % 0.01 in
02:11 41.4 °F 39.7 °F 30.30 in NW 3.0 mph 6.0 mph 94 % 0.01 in
02:16 41.4 °F 39.6 °F 30.30 in WNW 2.0 mph 6.0 mph 93 % 0.01 in
02:21 41.4 °F 39.6 °F 30.30 in Calm   6.0 mph 93 % 0.01 in
02:26 41.4 °F 39.6 °F 30.29 in NW 1.0 mph 6.0 mph 93 % 0.01 in
02:31 41.4 °F 39.6 °F 30.29 in North 3.0 mph 6.0 mph 93 % 0.01 in
02:36 41.5 °F 39.7 °F 30.29 in NW 1.0 mph 6.0 mph 93 % 0.01 in
02:41 41.5 °F 39.9 °F 30.29 in NE 2.0 mph 5.0 mph 94 % 0.00 in
02:46 41.5 °F 39.9 °F 30.29 in NNW 2.0 mph 8.0 mph 94 % 0.00 in
02:51 41.5 °F 39.9 °F 30.29 in North 2.0 mph 8.0 mph 94 % 0.00 in
02:56 41.7 °F 40.1 °F 30.28 in NNW 2.0 mph 8.0 mph 94 % 0.01 in
03:01 41.7 °F 40.1 °F 30.29 in North 2.0 mph 5.0 mph 94 % 0.01 in
03:06 41.7 °F 40.1 °F 30.29 in NW 1.0 mph 4.0 mph 94 % 0.01 in
03:12 41.7 °F 40.1 °F 30.30 in Calm   4.0 mph 94 % 0.01 in
03:14 41.7 °F 40.1 °F 30.30 in Calm   4.0 mph 94 % 0.01 in
03:19 41.7 °F 40.1 °F 30.30 in Calm   4.0 mph 94 % 0.02 in
03:24 41.9 °F 40.3 °F 30.30 in NNW 2.0 mph 3.0 mph 94 % 0.02 in
03:29 41.9 °F 40.3 °F 30.30 in NW 1.0 mph 3.0 mph 94 % 0.02 in
03:34 41.9 °F 40.3 °F 30.30 in NNW 1.0 mph 3.0 mph 94 % 0.02 in
03:39 42.1 °F 40.5 °F 30.30 in North 2.0 mph 4.0 mph 94 % 0.03 in
03:44 41.9 °F 40.1 °F 30.30 in Calm   4.0 mph 93 % 0.03 in
03:49 41.9 °F 40.1 °F 30.30 in NNW 1.0 mph 6.0 mph 93 % 0.03 in
03:54 41.9 °F 40.1 °F 30.30 in NW 2.0 mph 6.0 mph 93 % 0.02 in
03:59 41.9 °F 40.1 °F 30.30 in North 4.0 mph 6.0 mph 93 % 0.02 in
04:04 41.9 °F 40.1 °F 30.30 in NW 2.0 mph 5.0 mph 93 % 0.02 in
04:09 41.9 °F 40.1 °F 30.30 in Calm   5.0 mph 93 % 0.02 in
04:14 41.9 °F 40.1 °F 30.29 in NNW 2.0 mph 5.0 mph 93 % 0.03 in
04:19 41.9 °F 40.1 °F 30.29 in Calm   3.0 mph 93 % 0.02 in
04:24 41.9 °F 40.3 °F 30.29 in Calm   3.0 mph 94 % 0.02 in
04:29 41.9 °F 40.1 °F 30.29 in Calm   3.0 mph 93 % 0.03 in
04:34 41.9 °F 40.1 °F 30.29 in Calm   4.0 mph 93 % 0.03 in
04:39 41.9 °F 40.1 °F 30.29 in Calm   4.0 mph 93 % 0.03 in
04:44 41.7 °F 39.9 °F 30.29 in Calm   4.0 mph 93 % 0.04 in
04:49 41.7 °F 39.9 °F 30.29 in Calm   4.0 mph 93 % 0.04 in
04:54 41.7 °F 40.1 °F 30.29 in NNW 2.0 mph 3.0 mph 94 % 0.05 in
05:04 41.7 °F 40.1 °F 30.30 in NNW 2.0 mph 3.0 mph 94 % 0.06 in
05:10 41.7 °F 40.1 °F 30.29 in NNW 1.0 mph 3.0 mph 94 % 0.07 in
05:15 41.7 °F 40.1 °F 30.30 in NNW 1.0 mph 3.0 mph 94 % 0.07 in
05:20 41.7 °F 40.5 °F 30.30 in NNW 2.0 mph 5.0 mph 95 % 0.07 in
05:25 41.7 °F 40.5 °F 30.30 in NNW 1.0 mph 5.0 mph 95 % 0.07 in
05:30 41.9 °F 40.6 °F 30.30 in Calm   5.0 mph 95 % 0.07 in
05:35 42.1 °F 40.8 °F 30.30 in Calm   5.0 mph 95 % 0.07 in
05:40 42.1 °F 40.8 °F 30.30 in North 1.0 mph 5.0 mph 95 % 0.06 in
05:45 42.3 °F 41.0 °F 30.30 in NW 1.0 mph 5.0 mph 95 % 0.07 in
05:50 42.4 °F 41.2 °F 30.30 in Calm   5.0 mph 95 % 0.06 in
05:55 42.4 °F 40.8 °F 30.29 in NNE 1.0 mph 5.0 mph 94 % 0.05 in
06:00 42.4 °F 40.8 °F 30.30 in Calm   5.0 mph 94 % 0.06 in
06:05 42.4 °F 40.8 °F 30.29 in Calm   5.0 mph 94 % 0.05 in
06:10 42.6 °F 41.0 °F 30.29 in Calm   5.0 mph 94 % 0.05 in
06:15 42.6 °F 41.0 °F 30.29 in Calm   4.0 mph 94 % 0.04 in
06:20 42.6 °F 41.0 °F 30.30 in Calm   4.0 mph 94 % 0.05 in
06:26 42.8 °F 41.2 °F 30.30 in Calm   3.0 mph 94 % 0.04 in
06:31 42.8 °F 41.5 °F 30.30 in Calm   3.0 mph 95 % 0.04 in
06:36 43.0 °F 41.7 °F 30.30 in Calm   3.0 mph 95 % 0.03 in
06:41 43.0 °F 41.7 °F 30.30 in Calm   1.0 mph 95 % 0.03 in
06:51 43.2 °F 41.9 °F 30.30 in NNW 2.0 mph 8.0 mph 95 % 0.02 in
06:52 43.2 °F 41.5 °F 30.30 in North 2.0 mph 8.0 mph 94 % 0.02 in
06:57 43.5 °F 41.4 °F 30.30 in Calm   8.0 mph 92 % 0.02 in
07:07 43.7 °F 41.5 °F 30.30 in Calm   8.0 mph 92 % 0.01 in
07:12 43.5 °F 41.7 °F 30.30 in Calm   4.0 mph 93 % 0.01 in
07:17 43.5 °F 41.7 °F 30.30 in NW 2.0 mph 3.0 mph 93 % 0.02 in
07:22 43.5 °F 41.7 °F 30.30 in NNW 1.0 mph 9.0 mph 93 % 0.01 in
07:27 43.5 °F 41.7 °F 30.30 in Calm   9.0 mph 93 % 0.01 in
07:32 43.5 °F 41.7 °F 30.30 in NW 1.0 mph 9.0 mph 93 % 0.01 in
07:37 43.5 °F 41.7 °F 30.30 in Calm   4.0 mph 93 % 0.01 in
07:42 43.7 °F 42.1 °F 30.30 in NNE 5.0 mph 5.0 mph 94 % 0.01 in
07:47 43.5 °F 41.7 °F 30.30 in Calm   5.0 mph 93 % 0.01 in
07:52 43.7 °F 41.5 °F 30.30 in NNW 1.0 mph 8.0 mph 92 % 0.01 in
07:57 43.7 °F 41.5 °F 30.30 in NNE 1.0 mph 8.0 mph 92 % 0.02 in
08:02 43.7 °F 41.5 °F 30.30 in North 2.0 mph 8.0 mph 92 % 0.02 in
08:07 43.5 °F 41.4 °F 30.29 in ENE 3.0 mph 9.0 mph 92 % 0.02 in
08:17 43.5 °F 41.0 °F 30.29 in NNW 2.0 mph 9.0 mph 91 % 0.02 in
08:22 43.5 °F 41.0 °F 30.30 in NE 2.0 mph 5.0 mph 91 % 0.02 in
08:28 43.5 °F 41.0 °F 30.30 in North 1.0 mph 6.0 mph 91 % 0.02 in
08:33 43.5 °F 41.0 °F 30.30 in Calm   6.0 mph 91 % 0.02 in
08:38 43.5 °F 41.0 °F 30.31 in Calm   6.0 mph 91 % 0.03 in
08:48 43.7 °F 41.2 °F 30.32 in ESE 2.0 mph 3.0 mph 91 % 0.03 in
08:53 43.9 °F 41.4 °F 30.32 in Calm   4.0 mph 91 % 0.03 in
08:59 43.9 °F 41.4 °F 30.32 in ENE 1.0 mph 4.0 mph 91 % 0.03 in
09:04 44.1 °F 41.5 °F 30.32 in Calm   5.0 mph 91 % 0.03 in
09:10 44.1 °F 41.5 °F 30.32 in North 1.0 mph 6.0 mph 91 % 0.04 in
09:15 44.1 °F 41.5 °F 30.32 in Calm   6.0 mph 91 % 0.04 in
09:20 44.1 °F 41.5 °F 30.32 in Calm   6.0 mph 91 % 0.04 in
09:25 44.2 °F 41.7 °F 30.32 in ENE 1.0 mph 3.0 mph 91 % 0.04 in
09:30 44.2 °F 41.7 °F 30.31 in Calm   3.0 mph 91 % 0.04 in
09:35 44.2 °F 41.7 °F 30.31 in Calm   3.0 mph 91 % 0.05 in
09:40 44.2 °F 41.7 °F 30.30 in Calm   5.0 mph 91 % 0.04 in
09:45 44.2 °F 41.7 °F 30.30 in Calm   5.0 mph 91 % 0.04 in
09:50 44.4 °F 41.9 °F 30.30 in Calm   6.0 mph 91 % 0.04 in
09:55 44.2 °F 41.7 °F 30.30 in Calm   6.0 mph 91 % 0.04 in
10:00 44.2 °F 41.7 °F 30.30 in Calm   6.0 mph 91 % 0.04 in
10:05 44.4 °F 41.9 °F 30.30 in Calm   4.0 mph 91 % 0.03 in
10:10 44.4 °F 41.9 °F 30.30 in Calm   4.0 mph 91 % 0.03 in
10:15 44.4 °F 42.3 °F 30.30 in Calm   2.0 mph 92 % 0.03 in
10:20 44.4 °F 42.3 °F 30.30 in Calm   2.0 mph 92 % 0.03 in
10:25 44.6 °F 42.4 °F 30.30 in Calm   2.0 mph 92 % 0.03 in
10:30 44.8 °F 42.8 °F 30.30 in Calm   2.0 mph 93 % 0.02 in
10:35 44.8 °F 42.8 °F 30.30 in Calm   1.0 mph 93 % 0.02 in
10:40 45.0 °F 43.0 °F 30.30 in Calm   1.0 mph 93 % 0.03 in
10:45 45.0 °F 43.0 °F 30.30 in NNW 1.0 mph 1.0 mph 93 % 0.03 in
10:50 45.0 °F 43.0 °F 30.30 in Calm   2.0 mph 93 % 0.03 in
10:55 45.1 °F 43.5 °F 30.30 in Calm   2.0 mph 94 % 0.02 in
11:00 45.1 °F 43.5 °F 30.31 in Calm   2.0 mph 94 % 0.02 in
11:05 45.1 °F 43.5 °F 30.31 in NNW 2.0 mph 2.0 mph 94 % 0.02 in
11:10 45.1 °F 43.5 °F 30.31 in NNW 1.0 mph 2.0 mph 94 % 0.03 in
11:15 45.1 °F 43.2 °F 30.32 in Calm   2.0 mph 93 % 0.02 in
11:20 45.1 °F 42.6 °F 30.32 in NNE 4.0 mph 8.0 mph 91 % 0.02 in
11:25 45.1 °F 42.6 °F 30.32 in Calm   8.0 mph 91 % 0.03 in
11:30 45.3 °F 42.8 °F 30.32 in West 3.0 mph 8.0 mph 91 % 0.03 in
11:35 45.1 °F 41.7 °F 30.32 in NNE 5.0 mph 11.0 mph 88 % 0.03 in
11:40 45.0 °F 41.4 °F 30.33 in NE 5.0 mph 11.0 mph 87 % 0.03 in
11:45 45.0 °F 41.0 °F 30.32 in WNW 1.0 mph 17.0 mph 86 % 0.03 in
11:50 44.8 °F 41.4 °F 30.32 in West 4.0 mph 17.0 mph 88 % 0.04 in
12:00 44.8 °F 41.4 °F 30.31 in North 5.0 mph 13.0 mph 88 % 0.05 in
12:05 44.6 °F 41.9 °F 30.30 in Calm   10.0 mph 90 % 0.06 in
12:10 44.6 °F 41.9 °F 30.30 in North 3.0 mph 10.0 mph 90 % 0.05 in
12:16 44.6 °F 41.9 °F 30.30 in North 4.0 mph 9.0 mph 90 % 0.06 in
12:21 44.6 °F 41.9 °F 30.30 in NW 1.0 mph 9.0 mph 90 % 0.06 in
12:26 44.4 °F 41.9 °F 30.29 in NNW 1.0 mph 9.0 mph 91 % 0.06 in
12:31 44.4 °F 41.9 °F 30.29 in NW 4.0 mph 9.0 mph 91 % 0.06 in
12:36 44.4 °F 41.9 °F 30.29 in NNE 3.0 mph 9.0 mph 91 % 0.07 in
12:41 44.2 °F 41.7 °F 30.29 in NW 1.0 mph 9.0 mph 91 % 0.06 in
12:46 44.2 °F 42.1 °F 30.29 in NW 2.0 mph 8.0 mph 92 % 0.07 in
12:56 44.2 °F 42.3 °F 30.29 in NW 2.0 mph 8.0 mph 93 % 0.06 in
13:06 44.4 °F 42.4 °F 30.29 in North 4.0 mph 5.0 mph 93 % 0.06 in
13:16 44.4 °F 42.4 °F 30.29 in NNW 5.0 mph 5.0 mph 93 % 0.05 in
13:21 44.6 °F 42.6 °F 30.28 in Calm   8.0 mph 93 % 0.06 in
13:26 44.6 °F 42.6 °F 30.28 in Calm   8.0 mph 93 % 0.05 in
13:36 44.4 °F 42.4 °F 30.27 in NNW 2.0 mph 6.0 mph 93 % 0.04 in
13:41 44.4 °F 42.8 °F 30.27 in Calm   6.0 mph 94 % 0.05 in
13:51 44.8 °F 43.2 °F 30.27 in Calm   3.0 mph 94 % 0.04 in
13:56 44.8 °F 43.2 °F 30.27 in Calm   2.0 mph 94 % 0.03 in
14:01 44.8 °F 43.2 °F 30.27 in NNW 1.0 mph 2.0 mph 94 % 0.04 in
14:11 44.8 °F 43.5 °F 30.27 in Calm   2.0 mph 95 % 0.03 in
14:16 44.8 °F 43.2 °F 30.26 in NNW 1.0 mph 3.0 mph 94 % 0.04 in
14:26 45.0 °F 43.7 °F 30.26 in NW 2.0 mph 4.0 mph 95 % 0.03 in
14:31 45.0 °F 43.3 °F 30.26 in NNE 5.0 mph 8.0 mph 94 % 0.03 in
14:36 44.8 °F 42.8 °F 30.26 in NNE 7.0 mph 8.0 mph 93 % 0.03 in
14:41 44.4 °F 41.2 °F 30.25 in NE 3.0 mph 16.0 mph 88 % 0.02 in
14:46 44.2 °F 40.6 °F 30.25 in NNW 5.0 mph 16.0 mph 87 % 0.02 in
14:51 44.1 °F 40.5 °F 30.25 in NE 1.0 mph 16.0 mph 87 % 0.02 in
14:56 44.1 °F 40.5 °F 30.25 in NW 3.0 mph 15.0 mph 87 % 0.02 in
15:01 43.9 °F 39.9 °F 30.25 in NNE 3.0 mph 11.0 mph 86 % 0.01 in
15:11 43.5 °F 39.9 °F 30.25 in NW 4.0 mph 11.0 mph 87 % 0.01 in
15:16 43.3 °F 40.1 °F 30.25 in NW 2.0 mph 9.0 mph 88 % 0.01 in
15:21 43.3 °F 40.1 °F 30.25 in NNW 5.0 mph 9.0 mph 88 % 0.01 in
15:26 43.3 °F 40.3 °F 30.25 in North 1.0 mph 7.0 mph 89 % 0.01 in
15:32 43.3 °F 40.6 °F 30.25 in NNE 2.0 mph 6.0 mph 90 % 0.02 in
15:37 43.3 °F 40.6 °F 30.25 in NNW 2.0 mph 6.0 mph 90 % 0.02 in
15:42 43.5 °F 40.8 °F 30.25 in NW 1.0 mph 4.0 mph 90 % 0.02 in
15:48 43.5 °F 40.5 °F 30.26 in NNW 3.0 mph 4.0 mph 89 % 0.02 in
15:53 43.3 °F 40.3 °F 30.26 in NW 2.0 mph 9.0 mph 89 % 0.02 in
15:58 43.5 °F 40.8 °F 30.25 in NNW 1.0 mph 9.0 mph 90 % 0.02 in
16:03 43.3 °F 40.6 °F 30.25 in NNE 3.0 mph 9.0 mph 90 % 0.02 in
16:08 43.3 °F 40.6 °F 30.25 in NNW 3.0 mph 7.0 mph 90 % 0.01 in
16:13 43.2 °F 40.5 °F 30.25 in NNW 5.0 mph 5.0 mph 90 % 0.01 in
16:18 43.2 °F 40.5 °F 30.25 in NNW 3.0 mph 10.0 mph 90 % 0.01 in
16:23 43.2 °F 40.5 °F 30.26 in NNW 1.0 mph 10.0 mph 90 % 0.01 in
16:28 43.2 °F 40.5 °F 30.26 in NNW 1.0 mph 10.0 mph 90 % 0.01 in
16:33 43.2 °F 40.5 °F 30.26 in North 3.0 mph 7.0 mph 90 % 0.01 in
16:38 43.2 °F 40.1 °F 30.26 in North 4.0 mph 8.0 mph 89 % 0.01 in
16:43 43.2 °F 40.5 °F 30.27 in NNW 4.0 mph 9.0 mph 90 % 0.01 in
16:48 43.2 °F 40.5 °F 30.26 in NNE 5.0 mph 9.0 mph 90 % 0.01 in
16:53 43.0 °F 40.3 °F 30.27 in NW 2.0 mph 9.0 mph 90 % 0.01 in
16:58 43.0 °F 40.3 °F 30.27 in North 1.0 mph 7.0 mph 90 % 0.01 in
17:03 42.8 °F 40.3 °F 30.25 in Calm   7.0 mph 91 % 0.01 in
17:08 42.8 °F 40.3 °F 30.24 in Calm   7.0 mph 91 % 0.01 in
17:13 42.6 °F 40.1 °F 30.25 in Calm   6.0 mph 91 % 0.01 in
17:18 42.6 °F 40.5 °F 30.25 in Calm   3.0 mph 92 % 0.01 in
17:23 42.6 °F 40.5 °F 30.25 in Calm   3.0 mph 92 % 0.01 in
17:28 42.6 °F 40.5 °F 30.25 in Calm   3.0 mph 92 % 0.01 in
17:33 42.6 °F 40.8 °F 30.25 in Calm   3.0 mph 93 % 0.00 in
17:38 42.6 °F 40.8 °F 30.25 in Calm   3.0 mph 93 % 0.00 in
17:43 42.6 °F 40.8 °F 30.25 in NNE 3.0 mph 3.0 mph 93 % 0.00 in
17:48 42.6 °F 40.8 °F 30.25 in Calm   3.0 mph 93 % 0.00 in
17:53 42.6 °F 40.8 °F 30.26 in North 3.0 mph 3.0 mph 93 % 0.00 in
17:58 42.8 °F 41.0 °F 30.26 in Calm   3.0 mph 93 % 0.00 in
18:00 42.8 °F 41.0 °F 30.26 in North 2.0 mph 3.0 mph 93 % 0.00 in
18:05 43.0 °F 40.8 °F 30.27 in NW 1.0 mph 3.0 mph 92 % 0.00 in
18:10 42.8 °F 40.3 °F 30.27 in WNW 1.0 mph 5.0 mph 91 % 0.00 in
18:15 42.6 °F 39.6 °F 30.27 in NW 2.0 mph 6.0 mph 89 % 0.00 in
18:20 42.6 °F 38.7 °F 30.27 in NNW 4.0 mph 6.0 mph 86 % 0.00 in
18:25 42.4 °F 38.3 °F 30.27 in NNW 2.0 mph 6.0 mph 85 % 0.00 in
18:30 42.4 °F 38.3 °F 30.27 in NW 2.0 mph 6.0 mph 85 % 0.00 in
18:35 42.4 °F 37.6 °F 30.27 in NW 4.0 mph 11.0 mph 83 % 0.00 in
18:41 42.3 °F 36.9 °F 30.28 in WNW 5.0 mph 12.0 mph 81 % 0.00 in
18:46 42.3 °F 37.2 °F 30.28 in NNW 2.0 mph 12.0 mph 82 % 0.00 in
18:51 42.3 °F 37.4 °F 30.28 in NNW 3.0 mph 12.0 mph 83 % 0.00 in
18:56 42.1 °F 37.6 °F 30.28 in NNW 2.0 mph 8.0 mph 84 % 0.00 in
19:01 42.1 °F 37.6 °F 30.28 in NNW 3.0 mph 7.0 mph 84 % 0.00 in
19:16 41.5 °F 34.5 °F 30.29 in NW 18.0 mph 18.0 mph 76 % 0.00 in
19:22 41.4 °F 34.0 °F 30.30 in NNW 8.0 mph 18.0 mph 75 % 0.00 in
19:27 41.2 °F 33.8 °F 30.29 in NNW 6.0 mph 18.0 mph 75 % 0.00 in
19:32 40.8 °F 33.4 °F 30.30 in North 8.0 mph 18.0 mph 75 % 0.00 in
19:42 40.6 °F 33.6 °F 30.29 in NW 5.0 mph 15.0 mph 76 % 0.00 in
19:47 40.6 °F 33.6 °F 30.29 in NW 7.0 mph 14.0 mph 76 % 0.00 in
19:57 40.1 °F 34.2 °F 30.30 in North 9.0 mph 10.0 mph 79 % 0.00 in
20:02 39.7 °F 34.3 °F 30.30 in North 5.0 mph 11.0 mph 81 % 0.00 in
20:07 39.4 °F 34.7 °F 30.30 in NNW 2.0 mph 11.0 mph 83 % 0.00 in
20:12 38.7 °F 34.9 °F 30.31 in NW 5.0 mph 13.0 mph 86 % 0.00 in
20:17 38.1 °F 34.9 °F 30.30 in NW 8.0 mph 16.0 mph 88 % 0.00 in
20:22 37.8 °F 34.9 °F 30.31 in NW 6.0 mph 16.0 mph 89 % 0.00 in
20:27 37.6 °F 34.9 °F 30.31 in North 7.0 mph 16.0 mph 90 % 0.00 in
20:32 37.2 °F 34.9 °F 30.30 in NW 12.0 mph 15.0 mph 91 % 0.00 in
20:39 37.0 °F 34.9 °F 30.30 in North 2.0 mph 13.0 mph 92 % 0.00 in
20:44 36.9 °F 35.1 °F 30.31 in NW 4.0 mph 12.0 mph 93 % 0.00 in
20:49 36.7 °F 34.9 °F 30.30 in NNW 4.0 mph 13.0 mph 93 % 0.00 in
20:54 36.5 °F 34.9 °F 30.30 in NW 3.0 mph 13.0 mph 94 % 0.01 in
20:59 36.5 °F 34.9 °F 30.30 in Calm   13.0 mph 94 % 0.01 in
21:04 36.3 °F 34.7 °F 30.30 in East 4.0 mph 10.0 mph 94 % 0.01 in
21:09 36.0 °F 34.3 °F 30.30 in WNW 5.0 mph 11.0 mph 94 % 0.01 in
21:15 35.6 °F 34.0 °F 30.30 in NW 4.0 mph 12.0 mph 94 % 0.01 in
21:23 35.2 °F 34.0 °F 30.31 in NW 4.0 mph 17.0 mph 95 % 0.01 in
21:32 35.2 °F 34.0 °F 30.31 in NNW 4.0 mph 17.0 mph 95 % 0.01 in
21:34 35.2 °F 34.0 °F 30.31 in NW 2.0 mph 17.0 mph 95 % 0.01 in
21:40 35.1 °F 33.8 °F 30.32 in NW 3.0 mph 10.0 mph 95 % 0.02 in
21:47 34.9 °F 33.6 °F 30.32 in NNW 5.0 mph 12.0 mph 95 % 0.02 in
21:55 34.5 °F 33.3 °F 30.33 in NNE 5.0 mph 13.0 mph 95 % 0.01 in
22:00 34.5 °F 33.3 °F 30.34 in WNW 4.0 mph 13.0 mph 95 % 0.01 in
22:05 34.5 °F 33.4 °F 30.34 in NNW 6.0 mph 13.0 mph 96 % 0.01 in
22:10 34.3 °F 33.1 °F 30.33 in NW 6.0 mph 11.0 mph 95 % 0.01 in
22:15 34.2 °F 32.9 °F 30.33 in NNW 10.0 mph 15.0 mph 95 % 0.01 in
22:20 34.2 °F 32.9 °F 30.32 in NNW 3.0 mph 15.0 mph 95 % 0.01 in
22:25 34.0 °F 32.7 °F 30.32 in NW 2.0 mph 15.0 mph 95 % 0.01 in
22:30 34.0 °F 32.7 °F 30.32 in NW 5.0 mph 12.0 mph 95 % 0.01 in
22:35 33.6 °F 32.4 °F 30.32 in NNW 3.0 mph 12.0 mph 95 % 0.00 in
22:40 33.6 °F 32.5 °F 30.30 in NW 3.0 mph 12.0 mph 96 % 0.00 in
22:45 33.4 °F 32.4 °F 30.31 in WNW 4.0 mph 10.0 mph 96 % 0.00 in
22:50 33.4 °F 32.4 °F 30.31 in NNW 5.0 mph 10.0 mph 96 % 0.00 in
22:55 33.3 °F 32.2 °F 30.31 in NW 10.0 mph 11.0 mph 96 % 0.00 in
23:00 33.3 °F 32.2 °F 30.32 in WNW 2.0 mph 11.0 mph 96 % 0.00 in
23:05 33.1 °F 32.0 °F 30.33 in NNW 3.0 mph 13.0 mph 96 % 0.00 in
23:10 33.1 °F 32.0 °F 30.33 in NW 2.0 mph 13.0 mph 96 % 0.00 in
23:15 33.1 °F 32.0 °F 30.32 in North 6.0 mph 13.0 mph 96 % 0.00 in
23:20 32.9 °F 31.8 °F 30.32 in North 7.0 mph 10.0 mph 96 % 0.00 in
23:25 32.5 °F 31.5 °F 30.31 in NNW 8.0 mph 16.0 mph 96 % 0.00 in
23:30 32.4 °F 31.3 °F 30.32 in NNW 9.0 mph 16.0 mph 96 % 0.00 in
23:35 32.4 °F 31.3 °F 30.30 in NW 12.0 mph 16.0 mph 96 % 0.00 in
23:40 32.2 °F 31.1 °F 30.32 in NNW 6.0 mph 13.0 mph 96 % 0.00 in
23:50 32.0 °F 31.3 °F 30.32 in NNW 3.0 mph 13.0 mph 97 % 0.00 in
23:55 32.2 °F 31.5 °F 30.33 in NW 4.0 mph 13.0 mph 97 % 0.00 in
Spring, Texas: Villages of Bridgestone
Compliments of Weather Underground - 2.75 mb

Script developed by  Jim McMurry - jmcmurry@mwt.net Adapted for the template by  Wim van der Kuil - Leuven-Template.eu

You find our weather info also at:

UK Metoffice

WeatherCloud

Weather Underground

Mid-South Weather Network

AWEKAS

Citizen Weather Observer Program (CWOP)

HAMweather, WeatherForYou, PWS Weather

Equipment we use:

Weather-station
Davis Vantage Vue

Weather-program
Meteohub

Weather-server
Debian 7.9 x86 (Guest)

Provider
DreamHost

Davis Vantage Vue

Meteohub

Debian 7.9 x86 (Guest)

DreamHost